Regional Weather Roundup
Issued by NWS Green Bay, WI

Home | Current Version | Previous Version | Text Only | Print | Product List | Glossary On
Versions: 1 2 3 4 5 6 7 8 9 10 11 12 13 14 15 16 17 18 19 20 21 22 23 24 25 26 27 28 29 30 31 32 33 34 35 36 37 38 39 40 41 42 43 44 45 46 47 48 49 50
531
ASUS43 KGRB 230411
RWRGRB

NORTH-CENTRAL AND NORTHEAST WISCONSIN REGIONAL WEATHER ROUNDUP
NATIONAL WEATHER SERVICE GREEN BAY WI
1100 PM CDT SUN OCT 22 2017

WIZ005-009-010>012-018-019-230500-
NORTH CENTRAL WISCONSIN

CITY           SKY/WX    TMP DP  RH WIND       PRES   REMARKS
IRONWOOD       CLEAR     45  39  79 S10       29.92F
MANITOWISH WTR CLEAR     40  40 100 S6        29.95S
ARBOR VITAE    CLEAR     42  39  92 S5        29.96S
EAGLE RIVER    NOT AVBL
LAND O LAKES   CLEAR     37  37 100 CALM      29.98S
RHINELANDER    CLOUDY    43  41  93 SW7       29.98F
PHILLIPS       CLOUDY    41  40  97 S3        29.96S
ANTIGO         FOG       39  39 100 S5        30.00F VSB 3/4
TOMAHAWK       CLEAR     37  36  95 CALM      29.99S FOG
MERRILL        CLOUDY    34  34 100 CALM      30.00S FOG
$$

WIZ013-073-230500-
NORTHEAST WISCONSIN

CITY           SKY/WX    TMP DP  RH WIND       PRES   REMARKS
IRON MOUNTAIN  MOCLDY    45  42  89 SW5       29.97F
MARINETTE      PTCLDY    47  46  97 W3        30.01F
OCONTO         CLOUDY    42  42  99 CALM      30.01F VSB 1/4
$$

WIZ017-030-035>037-045-230500-
CENTRAL WISCONSIN

CITY           SKY/WX    TMP DP  RH WIND       PRES   REMARKS
MEDFORD        CLEAR     38  38  97 S5        29.98S
WAUSAU         CLOUDY    44  43  96 S6        29.99F
MOSINEE        CLOUDY    39  39 100 S5        30.01F FOG
MARSHFIELD     CLOUDY    40  39  97 S6        29.99F FOG
WISC RAPIDS    CLEAR     44  43  96 S3        30.02F
STEVENS POINT  FOG       41  41 100 CALM      30.01F VSB 1/2
WAUPACA        FOG       45  44  97 CALM      30.02F VSB 1/4
SHAWANO        FOG       47  46  95 CALM      30.01F VSB 3/4
CLINTONVILLE   FOG       45  45 100 CALM      30.02S VSB 3/4
WAUTOMA        FOG      N/A N/A N/A CALM      30.03F VSB 1/4
$$

WIZ038-039-048-051-230500-
FOX VALLEY

CITY           SKY/WX    TMP DP  RH WIND       PRES   REMARKS
NWS GREEN BAY  PTCLDY    48  48 100 CALM      30.02F
APPLETON       PTCLDY    46  46 100 CALM      30.01F
OSHKOSH        CLOUDY    48  47  96 CALM      30.02F
FOND DU LAC    CLOUDY    49  46  90 S3        30.03S
$$

WIZ022-050-052-230500-
EAST CENTRAL WISCONSIN

CITY           SKY/WX    TMP DP  RH WIND       PRES   REMARKS
EPHRAIM        CLOUDY    47  46  98 CALM      29.99F
WASHINGTON ISL CLOUDY    49  45  87 W3        29.99F
STURGEON BAY   CLOUDY    49  47  93 SW3       30.01F
MANITOWOC      CLOUDY    50  48  93 CALM      30.03F
SHEBOYGAN      LGT RAIN  50  50 100 CALM      30.03S
$$

LMZ563-521-522-541>543-230500-
LAKESHORE

STATION/POSITION TIME  TEMP    WIND        PRES    VSBY  WAVE
                       AIR SEA DIR/SP/G                  HT/PER
                 (UTC) (F)     (DEG/KT/KT) (MB)    (MI)  (FT/S)
SHEBOYGAN LKSHOR 0400   51     270/  4/  5 1016.8F
KEWAUNEE LKSHORE 0342   50     290/  3/  5 1015.7F
NORTHPORT PIER   0340   50      CALM  /  2 1015.9F
N MID LAKE BUOY  0350   53 57  230/ 12/ 14 1016.4F         2/ 7
S GREEN BAY BUOY 0400   53 58  260/ 12/ 14 1015.9
SISTER BAY LKSHO 0319   53     280/  8/  9   N/A
MENOMINEE LKSHOR 0342   49     240/  6/  7 1015.8F
$$




USA.gov is the U.S. government's official web portal to all federal, state and local government web resources and services.